Погода в Ноушехре

Иран     36°38′10″N   51°33′01″E
темп.,
°C
ветер,
м/с
пор.,
м/с
влажн.,
%
обл.,
%
осадки,
мм/ч
давл.,
гПа
погр.,
м
18 апреля, вс
вс1801:30+16вюв447497 0.0 101851
04:30+16в33755 0.0 101727
07:30+16в22760 0.0 101821
10:30+16всв22740 0.0 101838
13:30+16в11740 0.0 101642
16:30+17сз11672 0.0 101452
19:30+18св2271100 0.0 101413
22:30+17зсз567317 0.0 101563
19 апреля, пн
пн1901:30+17зсз567699 0.0 101575
04:30+16з7981100 0.1 1018213
07:30+16з5675100 0.0 101996
10:30+16сз347777 0.0 101963
13:30+16сз3378100 0.0 101885
16:30+16юв2276100 0.0 101756
19:30+17вюв3374100 0.0 101741
22:30+16в457812 0.0 101770
20 апреля, вт
вт2001:30+17в447536 0.0 101542
04:30+17в457597 0.0 101459
07:30+16в578131 0.0 1015117
10:30+16в46835 0.0 1014107
13:30+16в338395 0.0 101361
16:30+17вюв457971 0.0 101184
19:30+17в3378100 0.0 101029
22:30+17ссз117962 0.0 101011
21 апреля, ср
ср2101:30+19всв336559 0.0 100719
04:30+18всв116876 0.0 100811
07:30+18сз337350 0.0 101020
10:30+18зсз79765 0.0 101399
13:30+17зсз448330 0.0 101262
16:30+17з22835 0.0 101131
19:30+18з4482100 0.0 101455
22:30+17з91584100 0.0 1017261
22 апреля, чт
чт2201:30+16з101391100 0.0 1018422
04:30+16зсз81088100 0.1 1018402
07:30+15зсз688915 0.1 1019387
10:30+15зсз8109035 0.1 1020454
13:30+15сз788949 0.0 1019337
16:30+15зсз788953 0.0 1018276
19:30+15сз8988100 0.0 1017323
22:30+15сз6789100 0.0 1018256